Location: The Saddle
(36.8333°N, 80.3417°W)
Time: 20:23:42
(UTC-05:00)

X-37B - Visible Passes

Search period start: 26 November 2022 00:00
Search period end: 06 December 2022 00:00
Orbit: 277 x 277 km, 45.0° (Epoch: 01 November)

Date Brightness Start Highest point End Pass type
(mag) Time Alt. Az. Time Alt. Az. Time Alt. Az.
26 Nov 2.3 05:26:42 21° SE 05:26:42 21° SE 05:27:44 10° SE visible
27 Nov 3.0 05:27:43 12° SSE 05:27:43 12° SSE 05:27:57 10° SSE visible
04 Dec 2.1 18:29:05 10° SSW 18:30:16 17° SSE 18:30:16 17° SSE visible
05 Dec 0.9 18:29:12 10° SW 18:31:11 37° S 18:31:11 37° S visible
